#datetime,building,power
2022-09-20T00:00:00,mfh,48.66
2022-09-20T00:01:00,mfh,48.73
2022-09-20T00:02:00,mfh,48.95
2022-09-20T00:03:00,mfh,48.82
2022-09-20T00:04:00,mfh,48.65
2022-09-20T00:05:00,mfh,48.42
2022-09-20T00:06:00,mfh,47.98
2022-09-20T00:07:00,mfh,47.92
2022-09-20T00:08:00,mfh,48.56
2022-09-20T00:09:00,mfh,48.64
2022-09-20T00:10:00,mfh,48.57
2022-09-20T00:11:00,mfh,48.47
2022-09-20T00:12:00,mfh,47.81
2022-09-20T00:13:00,mfh,48.23
2022-09-20T00:14:00,mfh,48.35
2022-09-20T00:15:00,mfh,48.26
2022-09-20T00:16:00,mfh,48.24
2022-09-20T00:17:00,mfh,48.95
2022-09-20T00:18:00,mfh,49.03
2022-09-20T00:19:00,mfh,48.88
2022-09-20T00:20:00,mfh,48.13
2022-09-20T00:21:00,mfh,48.12
2022-09-20T00:22:00,mfh,48.21
2022-09-20T00:23:00,mfh,48.03
2022-09-20T00:24:00,mfh,48.65
2022-09-20T00:25:00,mfh,48.67
2022-09-20T00:26:00,mfh,48.70
2022-09-20T00:27:00,mfh,48.62
2022-09-20T00:28:00,mfh,48.03
2022-09-20T00:29:00,mfh,47.96
2022-09-20T00:30:00,mfh,47.90
2022-09-20T00:31:00,mfh,47.87
2022-09-20T00:32:00,mfh,48.41
2022-09-20T00:33:00,mfh,48.65
2022-09-20T00:34:00,mfh,48.65
2022-09-20T00:35:00,mfh,48.63
2022-09-20T00:36:00,mfh,48.70
2022-09-20T00:37:00,mfh,48.54
2022-09-20T00:38:00,mfh,48.09
2022-09-20T00:39:00,mfh,48.07
2022-09-20T00:40:00,mfh,49.12
2022-09-20T00:41:00,mfh,48.76
2022-09-20T00:42:00,mfh,48.76
2022-09-20T00:43:00,mfh,48.82
2022-09-20T00:44:00,mfh,48.65
2022-09-20T00:45:00,mfh,48.29
2022-09-20T00:46:00,mfh,48.09
2022-09-20T00:47:00,mfh,48.10
2022-09-20T00:48:00,mfh,48.46
2022-09-20T00:49:00,mfh,48.84
2022-09-20T00:50:00,mfh,49.52
2022-09-20T00:51:00,mfh,48.72
2022-09-20T00:52:00,mfh,48.04
2022-09-20T00:53:00,mfh,48.38
2022-09-20T00:54:00,mfh,48.09
2022-09-20T00:55:00,mfh,47.90
2022-09-20T00:56:00,mfh,48.49
2022-09-20T00:57:00,mfh,56.24
2022-09-20T00:58:00,mfh,56.75
2022-09-20T00:59:00,mfh,56.67
2022-09-20T01:00:00,mfh,56.36
2022-09-20T01:01:00,mfh,55.53
2022-09-20T01:02:00,mfh,56.88
2022-09-20T01:03:00,mfh,70.79
2022-09-20T01:04:00,mfh,71.20
2022-09-20T01:05:00,mfh,70.40
2022-09-20T01:06:00,mfh,68.38
2022-09-20T01:07:00,mfh,68.10
2022-09-20T01:08:00,mfh,67.04
2022-09-20T01:09:00,mfh,66.70
2022-09-20T01:10:00,mfh,66.42
2022-09-20T01:11:00,mfh,66.28
2022-09-20T01:12:00,mfh,66.03
2022-09-20T01:13:00,mfh,66.54
2022-09-20T01:14:00,mfh,66.45
2022-09-20T01:15:00,mfh,66.35
2022-09-20T01:16:00,mfh,66.41
2022-09-20T01:17:00,mfh,65.61
2022-09-20T01:18:00,mfh,58.66
2022-09-20T01:19:00,mfh,58.67
2022-09-20T01:20:00,mfh,53.08
2022-09-20T01:21:00,mfh,46.94
2022-09-20T01:22:00,mfh,47.38
2022-09-20T01:23:00,mfh,47.04
2022-09-20T01:24:00,mfh,46.43
2022-09-20T01:25:00,mfh,46.55
2022-09-20T01:26:00,mfh,46.47
2022-09-20T01:27:00,mfh,46.59
2022-09-20T01:28:00,mfh,46.53
2022-09-20T01:29:00,mfh,47.37
2022-09-20T01:30:00,mfh,47.40
2022-09-20T01:31:00,mfh,47.53
2022-09-20T01:32:00,mfh,48.58
2022-09-20T01:33:00,mfh,46.85
2022-09-20T01:34:00,mfh,47.62
2022-09-20T01:35:00,mfh,47.03
2022-09-20T01:36:00,mfh,47.03
2022-09-20T01:37:00,mfh,47.76
2022-09-20T01:38:00,mfh,47.84
2022-09-20T01:39:00,mfh,48.33
2022-09-20T01:40:00,mfh,47.85
2022-09-20T01:41:00,mfh,47.21
2022-09-20T01:42:00,mfh,48.16
2022-09-20T01:43:00,mfh,47.22
2022-09-20T01:44:00,mfh,47.22
2022-09-20T01:45:00,mfh,47.87
2022-09-20T01:46:00,mfh,47.92
2022-09-20T01:47:00,mfh,48.20
2022-09-20T01:48:00,mfh,47.53
2022-09-20T01:49:00,mfh,47.53
2022-09-20T01:50:00,mfh,48.48
2022-09-20T01:51:00,mfh,47.52
2022-09-20T01:52:00,mfh,47.46
2022-09-20T01:53:00,mfh,48.02
2022-09-20T01:54:00,mfh,48.07
2022-09-20T01:55:00,mfh,48.14
2022-09-20T01:56:00,mfh,47.54
2022-09-20T01:57:00,mfh,47.41
2022-09-20T01:58:00,mfh,47.43
2022-09-20T01:59:00,mfh,47.35
2022-09-20T02:00:00,mfh,48.04
2022-09-20T02:01:00,mfh,48.26
2022-09-20T02:02:00,mfh,48.18
2022-09-20T02:03:00,mfh,48.28
2022-09-20T02:04:00,mfh,47.81
2022-09-20T02:05:00,mfh,47.48
2022-09-20T02:06:00,mfh,47.37
2022-09-20T02:07:00,mfh,47.47
2022-09-20T02:08:00,mfh,47.44
2022-09-20T02:09:00,mfh,49.09
2022-09-20T02:10:00,mfh,48.07
2022-09-20T02:11:00,mfh,48.17
2022-09-20T02:12:00,mfh,47.84
2022-09-20T02:13:00,mfh,47.49
2022-09-20T02:14:00,mfh,47.56
2022-09-20T02:15:00,mfh,47.50
2022-09-20T02:16:00,mfh,48.04
2022-09-20T02:17:00,mfh,48.76
2022-09-20T02:18:00,mfh,49.15
2022-09-20T02:19:00,mfh,49.15
2022-09-20T02:20:00,mfh,48.36
2022-09-20T02:21:00,mfh,48.38
2022-09-20T02:22:00,mfh,47.61
2022-09-20T02:23:00,mfh,47.51
2022-09-20T02:24:00,mfh,48.11
2022-09-20T02:25:00,mfh,48.26
2022-09-20T02:26:00,mfh,48.28
2022-09-20T02:27:00,mfh,48.37
2022-09-20T02:28:00,mfh,47.59
2022-09-20T02:29:00,mfh,47.41
2022-09-20T02:30:00,mfh,47.42
2022-09-20T02:31:00,mfh,47.38
2022-09-20T02:32:00,mfh,47.93
2022-09-20T02:33:00,mfh,48.03
2022-09-20T02:34:00,mfh,48.14
2022-09-20T02:35:00,mfh,48.09
2022-09-20T02:36:00,mfh,48.16
2022-09-20T02:37:00,mfh,47.45
2022-09-20T02:38:00,mfh,47.47
2022-09-20T02:39:00,mfh,47.42
2022-09-20T02:40:00,mfh,47.37
2022-09-20T02:41:00,mfh,48.12
2022-09-20T02:42:00,mfh,48.41
2022-09-20T02:43:00,mfh,48.24
2022-09-20T02:44:00,mfh,48.19
2022-09-20T02:45:00,mfh,47.97
2022-09-20T02:46:00,mfh,47.72
2022-09-20T02:47:00,mfh,47.75
2022-09-20T02:48:00,mfh,47.65
2022-09-20T02:49:00,mfh,48.33
2022-09-20T02:50:00,mfh,48.50
2022-09-20T02:51:00,mfh,48.57
2022-09-20T02:52:00,mfh,48.40
2022-09-20T02:53:00,mfh,47.74
2022-09-20T02:54:00,mfh,48.57
2022-09-20T02:55:00,mfh,47.85
2022-09-20T02:56:00,mfh,47.85
2022-09-20T02:57:00,mfh,48.43
2022-09-20T02:58:00,mfh,48.42
2022-09-20T02:59:00,mfh,48.37
2022-09-20T03:00:00,mfh,47.62
2022-09-20T03:01:00,mfh,47.43
2022-09-20T03:02:00,mfh,47.45
2022-09-20T03:03:00,mfh,47.37
2022-09-20T03:04:00,mfh,47.98
2022-09-20T03:05:00,mfh,48.01
2022-09-20T03:06:00,mfh,48.04
2022-09-20T03:07:00,mfh,48.47
2022-09-20T03:08:00,mfh,49.42
2022-09-20T03:09:00,mfh,48.88
2022-09-20T03:10:00,mfh,48.98
2022-09-20T03:11:00,mfh,49.06
2022-09-20T03:12:00,mfh,49.32
2022-09-20T03:13:00,mfh,48.39
2022-09-20T03:14:00,mfh,48.12
2022-09-20T03:15:00,mfh,48.13
2022-09-20T03:16:00,mfh,47.38
2022-09-20T03:17:00,mfh,47.38
2022-09-20T03:18:00,mfh,47.47
2022-09-20T03:19:00,mfh,47.45
2022-09-20T03:20:00,mfh,48.02
2022-09-20T03:21:00,mfh,48.36
2022-09-20T03:22:00,mfh,48.30
2022-09-20T03:23:00,mfh,48.32
2022-09-20T03:24:00,mfh,48.59
2022-09-20T03:25:00,mfh,47.69
2022-09-20T03:26:00,mfh,47.62
2022-09-20T03:27:00,mfh,47.59
2022-09-20T03:28:00,mfh,48.32
2022-09-20T03:29:00,mfh,48.37
2022-09-20T03:30:00,mfh,48.41
2022-09-20T03:31:00,mfh,48.87
2022-09-20T03:32:00,mfh,48.03
2022-09-20T03:33:00,mfh,47.43
2022-09-20T03:34:00,mfh,47.41
2022-09-20T03:35:00,mfh,47.58
2022-09-20T03:36:00,mfh,47.54
2022-09-20T03:37:00,mfh,48.95
2022-09-20T03:38:00,mfh,48.65
2022-09-20T03:39:00,mfh,48.25
2022-09-20T03:40:00,mfh,48.05
2022-09-20T03:41:00,mfh,47.57
2022-09-20T03:42:00,mfh,47.51
2022-09-20T03:43:00,mfh,47.48
2022-09-20T03:44:00,mfh,47.44
2022-09-20T03:45:00,mfh,48.03
2022-09-20T03:46:00,mfh,47.99
2022-09-20T03:47:00,mfh,48.13
2022-09-20T03:48:00,mfh,47.44
2022-09-20T03:49:00,mfh,47.40
2022-09-20T03:50:00,mfh,47.86
2022-09-20T03:51:00,mfh,47.43
2022-09-20T03:52:00,mfh,48.29
2022-09-20T03:53:00,mfh,48.30
2022-09-20T03:54:00,mfh,48.17
2022-09-20T03:55:00,mfh,48.30
2022-09-20T03:56:00,mfh,47.64
2022-09-20T03:57:00,mfh,47.65
2022-09-20T03:58:00,mfh,47.70
2022-09-20T03:59:00,mfh,47.69
2022-09-20T04:00:00,mfh,48.33
2022-09-20T04:01:00,mfh,48.43
2022-09-20T04:02:00,mfh,48.40
2022-09-20T04:03:00,mfh,48.40
2022-09-20T04:04:00,mfh,47.65
2022-09-20T04:05:00,mfh,47.63
2022-09-20T04:06:00,mfh,47.64
2022-09-20T04:07:00,mfh,47.63
2022-09-20T04:08:00,mfh,48.51
2022-09-20T04:09:00,mfh,48.18
2022-09-20T04:10:00,mfh,48.26
2022-09-20T04:11:00,mfh,48.26
2022-09-20T04:12:00,mfh,47.57
2022-09-20T04:13:00,mfh,47.77
2022-09-20T04:14:00,mfh,47.72
2022-09-20T04:15:00,mfh,47.69
2022-09-20T04:16:00,mfh,48.48
2022-09-20T04:17:00,mfh,48.24
2022-09-20T04:18:00,mfh,48.24
2022-09-20T04:19:00,mfh,48.16
2022-09-20T04:20:00,mfh,47.45
2022-09-20T04:21:00,mfh,47.44
2022-09-20T04:22:00,mfh,47.47
2022-09-20T04:23:00,mfh,47.46
2022-09-20T04:24:00,mfh,48.30
2022-09-20T04:25:00,mfh,57.42
2022-09-20T04:26:00,mfh,57.86
2022-09-20T04:27:00,mfh,58.18
2022-09-20T04:28:00,mfh,57.50
2022-09-20T04:29:00,mfh,57.38
2022-09-20T04:30:00,mfh,57.31
2022-09-20T04:31:00,mfh,57.21
2022-09-20T04:32:00,mfh,58.10
2022-09-20T04:33:00,mfh,58.33
2022-09-20T04:34:00,mfh,58.14
2022-09-20T04:35:00,mfh,58.14
2022-09-20T04:36:00,mfh,57.35
2022-09-20T04:37:00,mfh,57.34
2022-09-20T04:38:00,mfh,57.41
2022-09-20T04:39:00,mfh,58.13
2022-09-20T04:40:00,mfh,58.22
2022-09-20T04:41:00,mfh,58.95
2022-09-20T04:42:00,mfh,58.83
2022-09-20T04:43:00,mfh,59.13
2022-09-20T04:44:00,mfh,58.50
2022-09-20T04:45:00,mfh,57.55
2022-09-20T04:46:00,mfh,57.58
2022-09-20T04:47:00,mfh,57.81
2022-09-20T04:48:00,mfh,58.62
2022-09-20T04:49:00,mfh,58.66
2022-09-20T04:50:00,mfh,58.72
2022-09-20T04:51:00,mfh,58.54
2022-09-20T04:52:00,mfh,57.79
2022-09-20T04:53:00,mfh,57.80
2022-09-20T04:54:00,mfh,57.73
2022-09-20T04:55:00,mfh,58.73
2022-09-20T04:56:00,mfh,58.76
2022-09-20T04:57:00,mfh,59.04
2022-09-20T04:58:00,mfh,58.85
2022-09-20T04:59:00,mfh,58.77
2022-09-20T05:00:00,mfh,58.43
2022-09-20T05:01:00,mfh,75.38
2022-09-20T05:02:00,mfh,74.43
2022-09-20T05:03:00,mfh,74.06
2022-09-20T05:04:00,mfh,74.53
2022-09-20T05:05:00,mfh,74.25
2022-09-20T05:06:00,mfh,74.31
2022-09-20T05:07:00,mfh,74.13
2022-09-20T05:08:00,mfh,73.59
2022-09-20T05:09:00,mfh,73.58
2022-09-20T05:10:00,mfh,73.66
2022-09-20T05:11:00,mfh,73.84
2022-09-20T05:12:00,mfh,75.23
2022-09-20T05:13:00,mfh,74.49
2022-09-20T05:14:00,mfh,74.45
2022-09-20T05:15:00,mfh,74.56
2022-09-20T05:16:00,mfh,73.75
2022-09-20T05:17:00,mfh,74.43
2022-09-20T05:18:00,mfh,74.30
2022-09-20T05:19:00,mfh,75.83
2022-09-20T05:20:00,mfh,78.00
2022-09-20T05:21:00,mfh,78.38
2022-09-20T05:22:00,mfh,77.03
2022-09-20T05:23:00,mfh,77.22
2022-09-20T05:24:00,mfh,75.55
2022-09-20T05:25:00,mfh,75.76
2022-09-20T05:26:00,mfh,75.80
2022-09-20T05:27:00,mfh,75.84
2022-09-20T05:28:00,mfh,76.35
2022-09-20T05:29:00,mfh,76.37
2022-09-20T05:30:00,mfh,76.32
2022-09-20T05:31:00,mfh,76.47
2022-09-20T05:32:00,mfh,75.59
2022-09-20T05:33:00,mfh,75.54
2022-09-20T05:34:00,mfh,75.83
2022-09-20T05:35:00,mfh,75.92
2022-09-20T05:36:00,mfh,77.30
2022-09-20T05:37:00,mfh,77.00
2022-09-20T05:38:00,mfh,77.72
2022-09-20T05:39:00,mfh,77.81
2022-09-20T05:40:00,mfh,77.68
2022-09-20T05:41:00,mfh,76.23
2022-09-20T05:42:00,mfh,76.85
2022-09-20T05:43:00,mfh,76.47
2022-09-20T05:44:00,mfh,77.42
2022-09-20T05:45:00,mfh,77.54
2022-09-20T05:46:00,mfh,77.56
2022-09-20T05:47:00,mfh,78.00
2022-09-20T05:48:00,mfh,76.43
2022-09-20T05:49:00,mfh,77.07
2022-09-20T05:50:00,mfh,76.34
2022-09-20T05:51:00,mfh,76.34
2022-09-20T05:52:00,mfh,76.93
2022-09-20T05:53:00,mfh,77.14
2022-09-20T05:54:00,mfh,77.61
2022-09-20T05:55:00,mfh,76.34
2022-09-20T05:56:00,mfh,75.56
2022-09-20T05:57:00,mfh,75.62
2022-09-20T05:58:00,mfh,76.44
2022-09-20T05:59:00,mfh,77.12
2022-09-20T06:00:00,mfh,77.22
2022-09-20T06:01:00,mfh,80.55
2022-09-20T06:02:00,mfh,81.09
2022-09-20T06:03:00,mfh,80.47
2022-09-20T06:04:00,mfh,80.39
2022-09-20T06:05:00,mfh,80.01
2022-09-20T06:06:00,mfh,79.89
2022-09-20T06:07:00,mfh,79.93
2022-09-20T06:08:00,mfh,80.55
2022-09-20T06:09:00,mfh,80.61
2022-09-20T06:10:00,mfh,80.53
2022-09-20T06:11:00,mfh,80.55
2022-09-20T06:12:00,mfh,80.58
2022-09-20T06:13:00,mfh,80.96
2022-09-20T06:14:00,mfh,80.86
2022-09-20T06:15:00,mfh,81.05
2022-09-20T06:16:00,mfh,81.04
2022-09-20T06:17:00,mfh,81.17
2022-09-20T06:18:00,mfh,80.65
2022-09-20T06:19:00,mfh,80.81
2022-09-20T06:20:00,mfh,80.98
2022-09-20T06:21:00,mfh,81.49
2022-09-20T06:22:00,mfh,81.44
2022-09-20T06:23:00,mfh,81.50
2022-09-20T06:24:00,mfh,81.55
2022-09-20T06:25:00,mfh,81.44
2022-09-20T06:26:00,mfh,81.52
2022-09-20T06:27:00,mfh,80.88
2022-09-20T06:28:00,mfh,80.94
2022-09-20T06:29:00,mfh,80.52
2022-09-20T06:30:00,mfh,81.15
2022-09-20T06:31:00,mfh,79.92
2022-09-20T06:32:00,mfh,85.09
2022-09-20T06:33:00,mfh,85.16
2022-09-20T06:34:00,mfh,84.86
2022-09-20T06:35:00,mfh,84.73
2022-09-20T06:36:00,mfh,84.48
2022-09-20T06:37:00,mfh,84.55
2022-09-20T06:38:00,mfh,84.80
2022-09-20T06:39:00,mfh,84.96
2022-09-20T06:40:00,mfh,84.83
2022-09-20T06:41:00,mfh,84.84
2022-09-20T06:42:00,mfh,84.81
2022-09-20T06:43:00,mfh,84.66
2022-09-20T06:44:00,mfh,84.85
2022-09-20T06:45:00,mfh,84.75
2022-09-20T06:46:00,mfh,84.51
2022-09-20T06:47:00,mfh,84.48
2022-09-20T06:48:00,mfh,84.59
2022-09-20T06:49:00,mfh,84.62
2022-09-20T06:50:00,mfh,84.97
2022-09-20T06:51:00,mfh,85.38
2022-09-20T06:52:00,mfh,85.28
2022-09-20T06:53:00,mfh,85.23
2022-09-20T06:54:00,mfh,85.06
2022-09-20T06:55:00,mfh,85.08
2022-09-20T06:56:00,mfh,85.14
2022-09-20T06:57:00,mfh,85.22
2022-09-20T06:58:00,mfh,85.45
2022-09-20T06:59:00,mfh,81.73
2022-09-20T07:00:00,mfh,82.20
2022-09-20T07:01:00,mfh,81.90
2022-09-20T07:02:00,mfh,82.32
2022-09-20T07:03:00,mfh,81.57
2022-09-20T07:04:00,mfh,81.75
2022-09-20T07:05:00,mfh,81.79
2022-09-20T07:06:00,mfh,82.42
2022-09-20T07:07:00,mfh,81.01
2022-09-20T07:08:00,mfh,81.15
2022-09-20T07:09:00,mfh,80.53
2022-09-20T07:10:00,mfh,80.58
2022-09-20T07:11:00,mfh,80.56
2022-09-20T07:12:00,mfh,80.07
2022-09-20T07:13:00,mfh,80.78
2022-09-20T07:14:00,mfh,80.79
2022-09-20T07:15:00,mfh,81.69
2022-09-20T07:16:00,mfh,82.13
2022-09-20T07:17:00,mfh,82.29
2022-09-20T07:18:00,mfh,82.20
2022-09-20T07:19:00,mfh,82.41
2022-09-20T07:20:00,mfh,81.99
2022-09-20T07:21:00,mfh,81.20
2022-09-20T07:22:00,mfh,85.69
2022-09-20T07:23:00,mfh,85.93
2022-09-20T07:24:00,mfh,85.74
2022-09-20T07:25:00,mfh,85.65
2022-09-20T07:26:00,mfh,85.59
2022-09-20T07:27:00,mfh,85.65
2022-09-20T07:28:00,mfh,85.66
2022-09-20T07:29:00,mfh,85.09
2022-09-20T07:30:00,mfh,85.08
2022-09-20T07:31:00,mfh,85.01
2022-09-20T07:32:00,mfh,81.54
2022-09-20T07:33:00,mfh,81.31
2022-09-20T07:34:00,mfh,81.43
2022-09-20T07:35:00,mfh,82.01
2022-09-20T07:36:00,mfh,82.04
2022-09-20T07:37:00,mfh,81.85
2022-09-20T07:38:00,mfh,85.96
2022-09-20T07:39:00,mfh,85.67
2022-09-20T07:40:00,mfh,87.20
2022-09-20T07:41:00,mfh,87.28
2022-09-20T07:42:00,mfh,87.28
2022-09-20T07:43:00,mfh,87.15
2022-09-20T07:44:00,mfh,87.22
2022-09-20T07:45:00,mfh,87.19
2022-09-20T07:46:00,mfh,87.12
2022-09-20T07:47:00,mfh,86.93
2022-09-20T07:48:00,mfh,86.90
2022-09-20T07:49:00,mfh,88.73
2022-09-20T07:50:00,mfh,88.73
2022-09-20T07:51:00,mfh,87.15
2022-09-20T07:52:00,mfh,88.73
2022-09-20T07:53:00,mfh,88.61
2022-09-20T07:54:00,mfh,88.54
2022-09-20T07:55:00,mfh,88.54
2022-09-20T07:56:00,mfh,88.53
2022-09-20T07:57:00,mfh,88.34
2022-09-20T07:58:00,mfh,88.30
2022-09-20T07:59:00,mfh,88.32
2022-09-20T08:00:00,mfh,88.41
2022-09-20T08:01:00,mfh,87.99
2022-09-20T08:02:00,mfh,88.00
2022-09-20T08:03:00,mfh,87.95
2022-09-20T08:04:00,mfh,85.81
2022-09-20T08:05:00,mfh,85.65
2022-09-20T08:06:00,mfh,85.71
2022-09-20T08:07:00,mfh,85.70
2022-09-20T08:08:00,mfh,86.04
2022-09-20T08:09:00,mfh,86.03
2022-09-20T08:10:00,mfh,85.85
2022-09-20T08:11:00,mfh,85.90
2022-09-20T08:12:00,mfh,88.29
2022-09-20T08:13:00,mfh,88.00
2022-09-20T08:14:00,mfh,87.77
2022-09-20T08:15:00,mfh,87.69
2022-09-20T08:16:00,mfh,87.62
2022-09-20T08:17:00,mfh,87.72
2022-09-20T08:18:00,mfh,87.72
2022-09-20T08:19:00,mfh,87.68
2022-09-20T08:20:00,mfh,87.75
2022-09-20T08:21:00,mfh,87.80
2022-09-20T08:22:00,mfh,87.90
2022-09-20T08:23:00,mfh,87.75
2022-09-20T08:24:00,mfh,87.72
2022-09-20T08:25:00,mfh,87.75
2022-09-20T08:26:00,mfh,87.85
2022-09-20T08:27:00,mfh,87.90
2022-09-20T08:28:00,mfh,87.92
2022-09-20T08:29:00,mfh,88.05
2022-09-20T08:30:00,mfh,87.94
2022-09-20T08:31:00,mfh,87.94
2022-09-20T08:32:00,mfh,87.88
2022-09-20T08:33:00,mfh,88.05
2022-09-20T08:34:00,mfh,87.86
2022-09-20T08:35:00,mfh,88.02
2022-09-20T08:36:00,mfh,88.00
2022-09-20T08:37:00,mfh,85.86
2022-09-20T08:38:00,mfh,86.00
2022-09-20T08:39:00,mfh,85.70
2022-09-20T08:40:00,mfh,85.73
2022-09-20T08:41:00,mfh,85.79
2022-09-20T08:42:00,mfh,85.74
2022-09-20T08:43:00,mfh,85.72
2022-09-20T08:44:00,mfh,82.38
2022-09-20T08:45:00,mfh,79.97
2022-09-20T08:46:00,mfh,80.12
2022-09-20T08:47:00,mfh,80.37
2022-09-20T08:48:00,mfh,86.61
2022-09-20T08:49:00,mfh,88.73
2022-09-20T08:50:00,mfh,88.82
2022-09-20T08:51:00,mfh,88.63
2022-09-20T08:52:00,mfh,88.56
2022-09-20T08:53:00,mfh,88.44
2022-09-20T08:54:00,mfh,88.46
2022-09-20T08:55:00,mfh,88.50
2022-09-20T08:56:00,mfh,88.53
2022-09-20T08:57:00,mfh,88.33
2022-09-20T08:58:00,mfh,88.27
2022-09-20T08:59:00,mfh,88.30
2022-09-20T09:00:00,mfh,88.11
2022-09-20T09:01:00,mfh,88.12
2022-09-20T09:02:00,mfh,88.24
2022-09-20T09:03:00,mfh,88.28
2022-09-20T09:04:00,mfh,88.34
2022-09-20T09:05:00,mfh,88.43
2022-09-20T09:06:00,mfh,88.11
2022-09-20T09:07:00,mfh,85.81
2022-09-20T09:08:00,mfh,85.96
2022-09-20T09:09:00,mfh,85.75
2022-09-20T09:10:00,mfh,85.66
2022-09-20T09:11:00,mfh,84.67
2022-09-20T09:12:00,mfh,81.06
2022-09-20T09:13:00,mfh,80.47
2022-09-20T09:14:00,mfh,81.03
2022-09-20T09:15:00,mfh,80.72
2022-09-20T09:16:00,mfh,80.84
2022-09-20T09:17:00,mfh,80.90
2022-09-20T09:18:00,mfh,80.28
2022-09-20T09:19:00,mfh,80.41
2022-09-20T09:20:00,mfh,80.00
2022-09-20T09:21:00,mfh,80.74
2022-09-20T09:22:00,mfh,80.26
2022-09-20T09:23:00,mfh,80.16
2022-09-20T09:24:00,mfh,80.17
2022-09-20T09:25:00,mfh,80.36
2022-09-20T09:26:00,mfh,80.95
2022-09-20T09:27:00,mfh,80.68
2022-09-20T09:28:00,mfh,80.79
2022-09-20T09:29:00,mfh,89.21
2022-09-20T09:30:00,mfh,89.39
2022-09-20T09:31:00,mfh,89.03
2022-09-20T09:32:00,mfh,88.95
2022-09-20T09:33:00,mfh,88.84
2022-09-20T09:34:00,mfh,88.77
2022-09-20T09:35:00,mfh,88.67
2022-09-20T09:36:00,mfh,88.51
2022-09-20T09:37:00,mfh,88.54
2022-09-20T09:38:00,mfh,88.64
2022-09-20T09:39:00,mfh,88.86
2022-09-20T09:40:00,mfh,88.90
2022-09-20T09:41:00,mfh,88.83
2022-09-20T09:42:00,mfh,86.87
2022-09-20T09:43:00,mfh,86.87
2022-09-20T09:44:00,mfh,87.06
2022-09-20T09:45:00,mfh,86.98
2022-09-20T09:46:00,mfh,81.43
2022-09-20T09:47:00,mfh,81.42
2022-09-20T09:48:00,mfh,81.81
2022-09-20T09:49:00,mfh,81.89
2022-09-20T09:50:00,mfh,81.79
2022-09-20T09:51:00,mfh,82.02
2022-09-20T09:52:00,mfh,81.90
2022-09-20T09:53:00,mfh,82.11
2022-09-20T09:54:00,mfh,81.89
2022-09-20T09:55:00,mfh,82.13
2022-09-20T09:56:00,mfh,81.69
2022-09-20T09:57:00,mfh,82.22
2022-09-20T09:58:00,mfh,82.90
2022-09-20T09:59:00,mfh,86.59
2022-09-20T10:00:00,mfh,86.45
2022-09-20T10:01:00,mfh,86.26
2022-09-20T10:02:00,mfh,85.86
2022-09-20T10:03:00,mfh,86.13
2022-09-20T10:04:00,mfh,85.74
2022-09-20T10:05:00,mfh,85.96
2022-09-20T10:06:00,mfh,85.73
2022-09-20T10:07:00,mfh,85.84
2022-09-20T10:08:00,mfh,85.62
2022-09-20T10:09:00,mfh,85.72
2022-09-20T10:10:00,mfh,85.54
2022-09-20T10:11:00,mfh,85.36
2022-09-20T10:12:00,mfh,85.24
2022-09-20T10:13:00,mfh,87.68
2022-09-20T10:14:00,mfh,87.75
2022-09-20T10:15:00,mfh,87.76
2022-09-20T10:16:00,mfh,87.79
2022-09-20T10:17:00,mfh,87.66
2022-09-20T10:18:00,mfh,87.60
2022-09-20T10:19:00,mfh,87.52
2022-09-20T10:20:00,mfh,87.68
2022-09-20T10:21:00,mfh,88.87
2022-09-20T10:22:00,mfh,88.86
2022-09-20T10:23:00,mfh,88.92
2022-09-20T10:24:00,mfh,88.81
2022-09-20T10:25:00,mfh,88.81
2022-09-20T10:26:00,mfh,88.81
2022-09-20T10:27:00,mfh,88.50
2022-09-20T10:28:00,mfh,88.45
2022-09-20T10:29:00,mfh,88.38
2022-09-20T10:30:00,mfh,88.61
2022-09-20T10:31:00,mfh,88.36
2022-09-20T10:32:00,mfh,88.16
2022-09-20T10:33:00,mfh,88.52
2022-09-20T10:34:00,mfh,88.41
2022-09-20T10:35:00,mfh,88.30
2022-09-20T10:36:00,mfh,88.35
2022-09-20T10:37:00,mfh,88.28
2022-09-20T10:38:00,mfh,88.35
2022-09-20T10:39:00,mfh,88.32
2022-09-20T10:40:00,mfh,88.22
2022-09-20T10:41:00,mfh,88.08
2022-09-20T10:42:00,mfh,88.03
2022-09-20T10:43:00,mfh,87.87
2022-09-20T10:44:00,mfh,88.12
2022-09-20T10:45:00,mfh,86.23
2022-09-20T10:46:00,mfh,86.38
2022-09-20T10:47:00,mfh,86.47
2022-09-20T10:48:00,mfh,86.35
2022-09-20T10:49:00,mfh,86.31
2022-09-20T10:50:00,mfh,86.31
2022-09-20T10:51:00,mfh,86.29
2022-09-20T10:52:00,mfh,88.45
2022-09-20T10:53:00,mfh,88.52
2022-09-20T10:54:00,mfh,88.39
2022-09-20T10:55:00,mfh,88.43
2022-09-20T10:56:00,mfh,88.51
2022-09-20T10:57:00,mfh,88.36
2022-09-20T10:58:00,mfh,88.28
2022-09-20T10:59:00,mfh,88.28
2022-09-20T11:00:00,mfh,88.31
2022-09-20T11:01:00,mfh,88.20
2022-09-20T11:02:00,mfh,88.18
2022-09-20T11:03:00,mfh,88.27
2022-09-20T11:04:00,mfh,88.51
2022-09-20T11:05:00,mfh,88.52
2022-09-20T11:06:00,mfh,88.31
2022-09-20T11:07:00,mfh,88.31
2022-09-20T11:08:00,mfh,88.41
2022-09-20T11:09:00,mfh,88.27
2022-09-20T11:10:00,mfh,88.20
2022-09-20T11:11:00,mfh,87.92
2022-09-20T11:12:00,mfh,87.79
2022-09-20T11:13:00,mfh,87.87
2022-09-20T11:14:00,mfh,87.94
2022-09-20T11:15:00,mfh,88.16
2022-09-20T11:16:00,mfh,88.27
2022-09-20T11:17:00,mfh,88.13
2022-09-20T11:18:00,mfh,88.12
2022-09-20T11:19:00,mfh,88.02
2022-09-20T11:20:00,mfh,88.24
2022-09-20T11:21:00,mfh,88.38
2022-09-20T11:22:00,mfh,88.53
2022-09-20T11:23:00,mfh,88.37
2022-09-20T11:24:00,mfh,88.34
2022-09-20T11:25:00,mfh,88.18
2022-09-20T11:26:00,mfh,88.22
2022-09-20T11:27:00,mfh,88.24
2022-09-20T11:28:00,mfh,88.06
2022-09-20T11:29:00,mfh,88.03
2022-09-20T11:30:00,mfh,88.04
2022-09-20T11:31:00,mfh,88.24
2022-09-20T11:32:00,mfh,88.08
2022-09-20T11:33:00,mfh,88.14
2022-09-20T11:34:00,mfh,88.07
2022-09-20T11:35:00,mfh,88.06
2022-09-20T11:36:00,mfh,88.00
2022-09-20T11:37:00,mfh,87.93
2022-09-20T11:38:00,mfh,87.79
2022-09-20T11:39:00,mfh,87.76
2022-09-20T11:40:00,mfh,87.92
2022-09-20T11:41:00,mfh,87.94
2022-09-20T11:42:00,mfh,87.86
2022-09-20T11:43:00,mfh,87.86
2022-09-20T11:44:00,mfh,87.86
2022-09-20T11:45:00,mfh,87.84
2022-09-20T11:46:00,mfh,87.94
2022-09-20T11:47:00,mfh,87.95
2022-09-20T11:48:00,mfh,87.97
2022-09-20T11:49:00,mfh,87.99
2022-09-20T11:50:00,mfh,88.02
2022-09-20T11:51:00,mfh,88.09
2022-09-20T11:52:00,mfh,88.25
2022-09-20T11:53:00,mfh,88.26
2022-09-20T11:54:00,mfh,88.09
2022-09-20T11:55:00,mfh,87.93
2022-09-20T11:56:00,mfh,88.00
2022-09-20T11:57:00,mfh,87.83
2022-09-20T11:58:00,mfh,88.01
2022-09-20T11:59:00,mfh,88.05
2022-09-20T12:00:00,mfh,88.27
2022-09-20T12:01:00,mfh,88.12
2022-09-20T12:02:00,mfh,88.19
2022-09-20T12:03:00,mfh,88.45
2022-09-20T12:04:00,mfh,88.23
2022-09-20T12:05:00,mfh,88.14
2022-09-20T12:06:00,mfh,88.17
2022-09-20T12:07:00,mfh,88.67
2022-09-20T12:08:00,mfh,88.37
2022-09-20T12:09:00,mfh,88.24
2022-09-20T12:10:00,mfh,88.51
2022-09-20T12:11:00,mfh,88.42
2022-09-20T12:12:00,mfh,88.45
2022-09-20T12:13:00,mfh,86.25
2022-09-20T12:14:00,mfh,86.35
2022-09-20T12:15:00,mfh,84.67
2022-09-20T12:16:00,mfh,80.86
2022-09-20T12:17:00,mfh,80.71
2022-09-20T12:18:00,mfh,80.81
2022-09-20T12:19:00,mfh,80.75
2022-09-20T12:20:00,mfh,81.17
2022-09-20T12:21:00,mfh,80.84
2022-09-20T12:22:00,mfh,80.87
2022-09-20T12:23:00,mfh,80.24
2022-09-20T12:24:00,mfh,79.55
2022-09-20T12:25:00,mfh,79.60
2022-09-20T12:26:00,mfh,80.28
2022-09-20T12:27:00,mfh,80.45
2022-09-20T12:28:00,mfh,80.26
2022-09-20T12:29:00,mfh,80.20
2022-09-20T12:30:00,mfh,80.39
2022-09-20T12:31:00,mfh,79.51
2022-09-20T12:32:00,mfh,79.51
2022-09-20T12:33:00,mfh,79.88
2022-09-20T12:34:00,mfh,80.21
2022-09-20T12:35:00,mfh,80.30
2022-09-20T12:36:00,mfh,80.69
2022-09-20T12:37:00,mfh,80.38
2022-09-20T12:38:00,mfh,80.49
2022-09-20T12:39:00,mfh,80.59
2022-09-20T12:40:00,mfh,80.05
2022-09-20T12:41:00,mfh,79.78
2022-09-20T12:42:00,mfh,79.78
2022-09-20T12:43:00,mfh,80.23
2022-09-20T12:44:00,mfh,80.48
2022-09-20T12:45:00,mfh,80.51
2022-09-20T12:46:00,mfh,80.22
2022-09-20T12:47:00,mfh,81.01
2022-09-20T12:48:00,mfh,80.21
2022-09-20T12:49:00,mfh,79.65
2022-09-20T12:50:00,mfh,84.77
2022-09-20T12:51:00,mfh,84.67
2022-09-20T12:52:00,mfh,85.00
2022-09-20T12:53:00,mfh,84.70
2022-09-20T12:54:00,mfh,84.51
2022-09-20T12:55:00,mfh,84.59
2022-09-20T12:56:00,mfh,84.72
2022-09-20T12:57:00,mfh,84.41
2022-09-20T12:58:00,mfh,84.10
2022-09-20T12:59:00,mfh,84.23
2022-09-20T13:00:00,mfh,84.07
2022-09-20T13:01:00,mfh,84.24
2022-09-20T13:02:00,mfh,84.59
2022-09-20T13:03:00,mfh,84.19
2022-09-20T13:04:00,mfh,84.16
2022-09-20T13:05:00,mfh,84.11
2022-09-20T13:06:00,mfh,84.20
2022-09-20T13:07:00,mfh,84.15
2022-09-20T13:08:00,mfh,83.91
2022-09-20T13:09:00,mfh,79.20
2022-09-20T13:10:00,mfh,79.18
2022-09-20T13:11:00,mfh,79.72
2022-09-20T13:12:00,mfh,79.55
2022-09-20T13:13:00,mfh,79.72
2022-09-20T13:14:00,mfh,79.73
2022-09-20T13:15:00,mfh,79.59
2022-09-20T13:16:00,mfh,79.65
2022-09-20T13:17:00,mfh,79.26
2022-09-20T13:18:00,mfh,79.14